Volk, WI

6:36 AM CDT on June 26, 2017 (GMT -0500)
Volk

Weather History for KVOK - June, 2013

Change the Weather History Date:

Thursday, June 6, 2013

  Actual Average Record
Temperature  
Mean Temperature 54 °F -  
Max Temperature 56 °F 69 °F 91 °F (2011)
Min Temperature 51 °F 56 °F 37 °F (2017)
Degree Days  
Heating Degree Days 11    
Growing Degree Days 4 (Base 50)    
Moisture  
Dew Point 53 °F    
Average Humidity 97    
Maximum Humidity 100    
Minimum Humidity 92    
Precipitation  
Precipitation 0.00 in - - ()
Sea Level Pressure  
Sea Level Pressure 29.96 in    
Wind  
Wind Speed 6 mph (East)    
Max Wind Speed 9 mph    
Max Gust Speed -    
Visibility 9 miles    
Events      
Averages and records for this station are not official NWS values.
T = Trace of Precipitation, MM = Missing Value Source: NWS Daily Summary

Daily Weather History Graph

Daily Weather History Graph

Search for Another Location

Airport or City:

Trip Planner

Search our weather history database for the weather conditions in past years. The results will help you decide how hot, cold, wet, or windy it might be!

Date:

Astronomy

Jun. 06, 2013 Rise Set
Actual Time 5:19 AM CDT 8:40 PM CDT
Civil Twilight 4:43 AM CDT 9:16 PM CDT
Nautical Twilight 3:57 AM CDT 10:03 PM CDT
Astronomical Twilight 2:59 AM CDT 11:01 PM CDT
Moon 4:04 AM CDT (6/6) 6:59 PM CDT (6/6)
Length of Visible Light 16h 32m
Length of Day
15h 21m
Waning Crescent, 3% of the Moon is Illuminated
Jun 6
Waning Crescent
Jun 8
New
Jun 16
First Quarter
Jun 23
Full
Jun 29
Last Quarter

Hourly Weather History & Observations

Time (CDT) Temp. Dew Point Humidity Pressure Visibility Wind Dir Wind Speed Gust Speed Precip Events Conditions
12:03 AM 51.8 °F 51.8 °F 100% 29.97 in 9.0 mi East 5.8 mph - N/A   Mostly Cloudy
12:58 AM 52.5 °F 52.5 °F 100% 29.99 in 10.0 mi East 5.8 mph - N/A   Overcast
1:58 AM 52.5 °F 52.5 °F 100% 29.97 in 10.0 mi ESE 5.8 mph - N/A   Overcast
2:48 AM 51.8 °F 51.8 °F 100% 29.95 in 10.0 mi ESE 8.1 mph - N/A   Mostly Cloudy
2:56 AM 51.8 °F 51.8 °F 100% 29.94 in 10.0 mi ESE 9.2 mph - N/A   Mostly Cloudy
2:58 AM 51.8 °F 51.8 °F 100% 29.96 in 10.0 mi ESE 9.2 mph - N/A   Mostly Cloudy
3:03 AM 51.8 °F 51.8 °F 100% 29.94 in 10.0 mi ESE 9.2 mph - N/A   Mostly Cloudy
3:38 AM 51.8 °F 51.8 °F 100% 29.93 in 10.0 mi East 6.9 mph - N/A   Overcast
3:43 AM 51.8 °F 51.8 °F 100% 29.93 in 10.0 mi East 6.9 mph - N/A   Overcast
3:53 AM 51.8 °F 51.8 °F 100% 29.93 in 10.0 mi East 5.8 mph - N/A   Overcast
3:58 AM 52.0 °F 51.8 °F 99% 29.95 in 10.0 mi East 4.6 mph - N/A   Overcast
4:08 AM 51.8 °F 51.8 °F 100% 29.93 in 10.0 mi East 5.8 mph - N/A   Overcast
4:13 AM 51.8 °F 51.8 °F 100% 29.93 in 10.0 mi East 8.1 mph - N/A   Overcast
4:23 AM 51.8 °F 51.8 °F 100% 29.93 in 10.0 mi East 8.1 mph - N/A   Overcast
4:38 AM 51.8 °F 51.8 °F 100% 29.93 in 10.0 mi East 4.6 mph - N/A   Overcast
4:48 AM 51.8 °F 51.8 °F 100% 29.94 in 10.0 mi East 5.8 mph - N/A   Overcast
4:58 AM 51.4 °F 51.4 °F 100% 29.96 in 10.0 mi East 8.1 mph - N/A   Overcast
5:58 AM 51.3 °F 51.3 °F 100% 29.96 in 10.0 mi East 5.8 mph - N/A   Overcast
6:28 AM 51.8 °F 51.8 °F 100% 29.94 in 9.0 mi East 8.1 mph - N/A   Overcast
6:38 AM 51.8 °F 51.8 °F 100% 29.94 in 9.0 mi ESE 8.1 mph - N/A   Overcast
6:43 AM 51.8 °F 51.8 °F 100% 29.94 in 9.0 mi ESE 6.9 mph - N/A   Overcast
6:53 AM 51.8 °F 51.8 °F 100% 29.94 in 10.0 mi ESE 6.9 mph - N/A   Overcast
6:58 AM 51.8 °F 51.8 °F 100% 29.96 in 10.0 mi East 6.9 mph - N/A   Overcast
7:23 AM 51.8 °F 51.8 °F 100% 29.94 in 10.0 mi East 8.1 mph - N/A   Overcast
7:35 AM 51.8 °F 51.8 °F 100% 29.94 in 7.0 mi East 8.1 mph - N/A   Overcast
7:58 AM 53.6 °F 51.8 °F 94% 29.96 in 10.0 mi ESE 8.1 mph - N/A   Overcast
8:24 AM 53.6 °F 51.8 °F 94% 29.95 in 10.0 mi ESE 8.1 mph - N/A   Overcast
8:27 AM 53.6 °F 51.8 °F 94% 29.95 in 10.0 mi ESE 6.9 mph - N/A   Overcast
8:54 AM 53.6 °F 51.8 °F 94% 29.95 in 10.0 mi ESE 9.2 mph - N/A   Overcast
8:58 AM 53.6 °F 51.8 °F 94% 29.96 in 10.0 mi North - - N/A   Overcast
9:54 AM 55.4 °F 53.6 °F 94% 29.95 in 10.0 mi East 5.8 mph - N/A   Overcast
9:58 AM 55.4 °F 53.6 °F 94% 29.96 in 10.0 mi East 5.8 mph - N/A   Overcast
10:54 AM 55.4 °F 53.6 °F 94% 29.96 in 10.0 mi East 5.8 mph - N/A   Overcast
10:58 AM 55.4 °F 53.6 °F 94% 29.97 in 10.0 mi East 5.8 mph - N/A   Overcast
11:16 AM 55.4 °F 53.6 °F 94% 29.96 in 10.0 mi ESE 5.8 mph - N/A   Overcast
11:33 AM 55.4 °F 53.6 °F 94% 29.96 in 9.0 mi East 6.9 mph - N/A   Overcast
11:58 AM 54.7 °F 54.0 °F 97% 29.99 in 5.0 mi ESE 5.8 mph - N/A   Overcast
12:03 PM 55.4 °F 53.6 °F 94% 29.97 in 4.0 mi East 5.8 mph - N/A   Overcast
12:08 PM 55.4 °F 53.6 °F 94% 29.97 in 5.0 mi East 5.8 mph - N/A   Overcast
12:38 PM 55.4 °F 53.6 °F 94% 29.97 in 9.0 mi East 6.9 mph - N/A   Overcast
12:48 PM 55.4 °F 53.6 °F 94% 29.97 in 8.0 mi East 5.8 mph - N/A   Overcast
12:58 PM 55.4 °F 55.4 °F 100% 29.98 in 7.0 mi East 8.1 mph - N/A   Overcast
1:58 PM 55.4 °F 55.4 °F 100% 29.97 in 4.0 mi ENE 3.5 mph - N/A   Overcast
2:31 PM 57.2 °F 55.4 °F 94% 29.96 in 10.0 mi ENE 2.3 mph - N/A   Overcast
2:58 PM 57.2 °F 55.4 °F 94% 29.98 in 6.0 mi ENE 4.6 mph - N/A   Overcast
3:32 PM 55.4 °F 55.4 °F 100% 29.96 in 2.0 mi Variable 3.5 mph - N/A   Light Drizzle
7:58 PM 55.4 °F 53.6 °F 94% 30.00 in 10.0 mi ENE 4.6 mph - N/A   Overcast
8:08 PM 55.4 °F 53.6 °F 94% 29.98 in 10.0 mi NNE 4.6 mph - N/A   Mostly Cloudy
8:13 PM 55.4 °F 53.6 °F 94% 29.98 in 10.0 mi NE 3.5 mph - N/A   Mostly Cloudy
8:18 PM 55.4 °F 53.6 °F 94% 29.98 in 10.0 mi Variable 4.6 mph - N/A   Mostly Cloudy
8:28 PM 53.6 °F 53.6 °F 100% 29.98 in 10.0 mi NNE 3.5 mph - N/A   Mostly Cloudy
8:58 PM 54.1 °F 52.9 °F 95% 29.98 in 10.0 mi NE 5.8 mph - N/A   Overcast
9:58 PM 53.4 °F 51.3 °F 92% 29.99 in 10.0 mi ENE 3.5 mph - N/A   Mostly Cloudy
10:58 PM 53.1 °F 51.3 °F 94% 30.00 in 10.0 mi NNE 2.3 mph - N/A   Overcast